Погода Старое Баршино

Погода Старое Баршино : погода сейчас, прогноз погоды и архив. Всё, что Вы хотите узнать о погоде Старое Баршино!

Поиск расширенной информации на нашем сайте:

Другие новости

Новости СМИ2

Главная страница сайта

Новости сайта

03.07.2017

Напоминаем, что на нашем специализированном сайте Метеоцентр.Азия вы можете получить высокодетализированные автоматические прогнозы погоды по пунктам России, СНГ и мира в авиационном формате (включающие направление и скорость ветра, видимость, явления погоды, количество и форму облачности, нижнюю и верхнюю границу облачности).

Рекомендуем: ищете офис? Бизнес центр Капитал Тауэр в районе 1-я Тверская-Ямская улица с фотками и планировками

Погода Старое Баршино - сегодня

Время (UTC), дата Ветер
(°,м/с) 
Видим.   Явления Облачность Т
(°С)
Тd
(°С)
f(%) Тe
(°С)
Pmin
(гПа)
dP
(гПа)
Po
(мм)
O2
(г/м3)
Тmin Tmax R s Состояние
почвы
15 23.05.18 320 (СЗ) 10 км    ясно 
+11.9 -3 35 +12  1023.7  1.6  736  285    +15       
18 23.05.18 360 (С) н/о    ясно 
+5.5 -0.3 66 +6  1027  2.3  738  292    +15       
21 23.05.18 тихо ()   н/о    ясно 
+0.3 -1.7 86 1028.1  0.3  738  297           
00 24.05.18 тихо ()   10 км    3/0 средняя 
[Ac und]
-0.8 -1.7 94 -1  1029.3  0.9  739  299           
06 24.05.18 250 (З) 10 км    3/0 верхняя 
[Ci fib]
+17.5 -4.7 22 +18  1025.1  -1.6  738  280  -1.3         
09 24.05.18 230 (ЮЗ) 10 км    9/6 600 м средняя 
[Sc|Ac und]
+19.6 -1.4 24 +20  1022.9  -1.9  737  277           
12 24.05.18 230 (ЮЗ) 10 км    8/6 600 м кучево-дожд., средняя 
[Cb cap|Ac und]
+22.7 +1.1 24 +23  1019.1  -3.1  734  273           
15 24.05.18 250 (З) 10 км    8/8 600 м кучево-дожд. 
[Cb cap]
+21.2 +2.5 29 +21  1017.6  -1.7  733  274    +23.5       
18 24.05.18 230 (ЮЗ) н/о    10/10 600 м кучево-дожд. 
[Cb cap]
+19.4 +1.3 30 +20  1016.8  -1  732  275    +23.5       
21 24.05.18 230 (ЮЗ) н/о    8/8 600 м кучево-дожд. 
[Cb cap]
+15.4 +3.4 45 +17  1015.8  -1.5  731  278           
00 25.05.18 230 (ЮЗ) н/о    9/9 600 м 
[Sc diur, vesp]
+14.9 +3.2 45 +15  1015.5  -0.3  731  279           
06 25.05.18 270 (З) 10 км    3/0 верхняя 
[Ci fib]
+27.3 +1.7 19 +27  1012.9  -1.1  730  267  +14.5         
09 25.05.18 270 (З) 10 км    3/3 1000 м 
[Cu hum]
+29.1 +3.4 19 +29  1011.7  -0.8  730  265           
12 25.05.18 270 (З) 10 км    3/3 1000 м 
[Cu hum]
+29.5 +2.7 18 +30  1010.8  -0.3  729  265           
15 25.05.18 230 (ЮЗ) 10 км    ясно 
+25 +4.5 27 +25  1010.9  -0.4  729  268    +31.6       
18 25.05.18 230 (ЮЗ) н/о    ясно 
+16.2 +5.9 50 +16  1012  -0.2  728  276    +31.6       
21 25.05.18 230 (ЮЗ) н/о    ясно 
+14.5 +5.9 56 +15  1011.2  -0.8  728  277           
00 26.05.18 180 (Ю) 10 км    ясно 
+11.5 +4.6 63 +11  1009.8  -1.8  727  280           
06 26.05.18 200 (Ю) 12  10 км    3/0 верхняя 
[Ci fib]
+28.3 -1.7 14 +28  1005.2  -1.3  725  265  +11         
09 26.05.18 200 (Ю) 10  10 км    3/0 верхняя 
[Ci fib]
+30.6 +0.2 14 +31  1001.6  -3.3  722  262           
12 26.05.18 200 (Ю) 12  10 км    8/0 средняя, верхняя 
[Ac und|Ci sp]
+32.1 +6.4 20 +32  998.1  -3  720  259           
15 26.05.18 200 (Ю) 10 км    9/4 600 м кучево-дожд., средняя, верхняя 
[Cb cap|Ac und|Ci sp]
+27.9 +3.8 21 +28  996.5  -2.1  719  262    +32.6       
18 26.05.18 200 (Ю) н/о    8/3 600 м кучево-дожд., средняя 
[Cb cap|Ac und]
+20.8 +0.6 26 +21  994.6  -2.7  716  268    +32.6       
21 26.05.18 320 (СЗ) н/о    6/0 средняя, верхняя 
[Ac und|Ci sp]
+16.7 +7.8 56 +18  998.1  2.1  718  271           
00 27.05.18 360 (С) 10 км    8/0 средняя, верхняя 
[Ac und|Ci sp]
+10.2 +5.1 71 +10  1000  1.6  719  278           
Время (UTC), дата Ветер
(°,м/с) 
Видим.   Явления Облачность Т
(°С)
Тd
(°С)
f(%) Тe
(°С)
Pmin
(гПа)
dP
(гПа)
Po
(мм)
O2
(г/м3)
Тmin Tmax R s Состояние
почвы

Для получения пояснительной информации подведите курсор к названию столбца.

ПОГОДА Старое Баршино - архив

Всё, что Вы хотите узнать о погоде Старое Баршино - удобно и подробно!

Выберите нужную дату (начиная с 1 января 2015* года) и нажмите кнопку "Найти".
Будут отображены архивные сводки погоды по пункту Старое Баршино, начиная с указанной даты.


Отображать данные в формате CSV (для использования в таблицах Excel)


Внимание! Наш архив погоды предназначен исключительно для личного некоммерческого использования в познавательных целях. Если Вам необходимы официальные справки о состоянии погоды (для производственных, юридических, коммерческих и т.п. целей), обращайтесь в органы Росгидромета.

*Примечание: данная дата относится к архиву по метеостанциям СССР (Россия, СНГ, Балтия).
Архив по метеостанциям Зарубежной Европы и Азии (кроме Китая) хранится 10 дней, по другим регионам земного шара (Китай, Африка, Америка, Австралия, Океания) - 1 день.

Старое Баршино - район местоположения метеостанции


Название, широта, долгота, высота метеостанции:
Старое Баршино 49.68°ш. 69.52°д. 357 м над ур. моря [Казахстан]

Дополнительная информация

В oтличие oт бoльшинства пoгoдных сайтoв мы публикуем пoдрoбную метеoинфoрмацию в детальнoм прoфессиoнальнoм фoрмате.

Характеристики температуры и влажнoсти вoздуха измеряются на высoте 2 м в тени вдали oт зданий и деревьев.
Скoрoсть ветра измеряется на высoте 10 м (на урoвне рoста челoвека скoрoсть ветра ниже в 1.5-2 раза). Если метеoстанция нахoдится в гoрoде или в лесу, тo скoрoсть ветра занижена на 2-4 м/с пo сравнению с oткрытым местoм. Скoрoсть ветра над акватoриями крупных рек и oзёр, а также на вершинах хoлмoв на 2-5 м/с выше, чем в oбычных услoвиях.
Атмoсфернoе давление в разных тoчках местнoсти мoжет значительнo oтличаться oт давления на метеoстанции, в зависимoсти oт услoвий рельефа (при пoдъёме на 10 м давление пoнижается примернo на 1 мм рт.ст.).